JTB16Y SVMI-SVMC

Flight info

Callsign JTB16Y
Flight time 0h 54m
Altitude 24000
Route MARES1 MARES A315 ATONO G427 PBL UW52 MAU A552 MAR
Aircraft A320/M-SDE3FGHIRWY/LB1

Departure

Time 2026-04-19 06:54
Airport Maiquetía Simón Bolívar International Airport (SVMI)

Arrival

Time 2026-04-19 07:48
Airport La Chinita International Airport (SVMC)
Time Latitude Longitude Altitude Speed Heading
2026-04-19 06:38 10.59836 -67.00588 178 ft 0 kts 177°
2026-04-19 06:46 10.59848 -67.00589 178 ft 2 kts 177°
2026-04-19 06:47 10.59865 -67.00589 181 ft 2 kts 177°
2026-04-19 06:47 10.59881 -67.00590 187 ft 2 kts 153°
2026-04-19 06:47 10.59892 -67.00600 188 ft 0 kts 91°
2026-04-19 06:49 10.59892 -67.00596 184 ft 3 kts 86°
2026-04-19 06:49 10.59907 -67.00549 188 ft 11 kts 72°
2026-04-19 06:50 10.59922 -67.00489 180 ft 12 kts 72°
2026-04-19 06:50 10.59997 -67.00420 174 ft 15 kts 90°
2026-04-19 06:50 10.59999 -67.00343 172 ft 15 kts 86°
2026-04-19 06:50 10.60088 -67.00297 180 ft 17 kts 25°
2026-04-19 06:51 10.60113 -67.00191 176 ft 18 kts 89°
2026-04-19 06:51 10.60115 -67.00043 175 ft 16 kts 87°
2026-04-19 06:51 10.60125 -66.99926 176 ft 18 kts 83°
2026-04-19 06:51 10.60135 -66.99773 161 ft 20 kts 89°
2026-04-19 06:52 10.60104 -66.99672 157 ft 19 kts 152°
2026-04-19 06:52 10.59993 -66.99669 147 ft 8 kts 174°
2026-04-19 06:52 10.59908 -66.99655 145 ft 15 kts 146°
2026-04-19 06:52 10.59910 -66.99603 145 ft 8 kts 72°
2026-04-19 06:53 10.59943 -66.99487 146 ft 43 kts 71°
2026-04-19 06:53 10.60072 -66.98952 156 ft 110 kts 77°
2026-04-19 06:53 10.60298 -66.98020 187 ft 158 kts 76°
2026-04-19 06:53 10.60566 -66.96935 771 ft 156 kts 74°
2026-04-19 06:54 10.61221 -66.96119 1411 ft 152 kts 23°
2026-04-19 06:54 10.62268 -66.96017 1867 ft 159 kts 347°
2026-04-19 06:54 10.63338 -66.96445 2234 ft 173 kts 329°
2026-04-19 06:54 10.64279 -66.97259 2698 ft 185 kts 303°
2026-04-19 06:55 10.64785 -66.98510 3080 ft 201 kts 283°
2026-04-19 06:55 10.65091 -66.99976 3358 ft 225 kts 281°
2026-04-19 06:55 10.65402 -67.01624 3715 ft 249 kts 280°
2026-04-19 06:55 10.65739 -67.03440 3922 ft 269 kts 281°
2026-04-19 06:56 10.66301 -67.05253 3944 ft 271 kts 301°
2026-04-19 06:56 10.67429 -67.06789 3951 ft 272 kts 309°
2026-04-19 06:56 10.68617 -67.08295 3944 ft 272 kts 309°
2026-04-19 06:56 10.69806 -67.09793 3956 ft 272 kts 309°
2026-04-19 06:57 10.70994 -67.11289 3951 ft 272 kts 309°
2026-04-19 06:57 10.72186 -67.12790 3941 ft 273 kts 309°
2026-04-19 06:57 10.73381 -67.14296 3936 ft 274 kts 309°
2026-04-19 06:57 10.74577 -67.15803 3930 ft 274 kts 309°
2026-04-19 06:58 10.75760 -67.17296 3927 ft 274 kts 309°
2026-04-19 06:58 10.76969 -67.18826 3924 ft 274 kts 309°
2026-04-19 06:58 10.78147 -67.20315 3929 ft 274 kts 309°
2026-04-19 06:58 10.79357 -67.21847 3932 ft 279 kts 309°
2026-04-19 06:59 10.80565 -67.23436 4743 ft 282 kts 308°
2026-04-19 06:59 10.81726 -67.25000 5808 ft 280 kts 307°
2026-04-19 06:59 10.82898 -67.26594 6742 ft 282 kts 307°
2026-04-19 06:59 10.84078 -67.28198 7611 ft 285 kts 307°
2026-04-19 07:00 10.85270 -67.29815 8480 ft 287 kts 307°
2026-04-19 07:00 10.86476 -67.31448 9347 ft 289 kts 307°
2026-04-19 07:00 10.87696 -67.33094 10130 ft 294 kts 307°
2026-04-19 07:00 10.88974 -67.34816 10414 ft 316 kts 307°
2026-04-19 07:01 10.90343 -67.36660 10656 ft 336 kts 307°
2026-04-19 07:01 10.91771 -67.38582 11222 ft 343 kts 307°
2026-04-19 07:01 10.93216 -67.40527 11915 ft 346 kts 307°
2026-04-19 07:01 10.94669 -67.42480 12658 ft 348 kts 307°
2026-04-19 07:02 10.96027 -67.44534 13285 ft 353 kts 296°
2026-04-19 07:02 10.96762 -67.46919 13932 ft 356 kts 278°
2026-04-19 07:02 10.96712 -67.49444 14543 ft 360 kts 260°
2026-04-19 07:02 10.95864 -67.51848 15132 ft 366 kts 242°
2026-04-19 07:03 10.94321 -67.53934 15702 ft 372 kts 231°
2026-04-19 07:03 10.92622 -67.55928 16290 ft 374 kts 231°
2026-04-19 07:03 10.90905 -67.57934 16871 ft 377 kts 231°
2026-04-19 07:03 10.89176 -67.59953 17451 ft 380 kts 231°
2026-04-19 07:04 10.87433 -67.61993 18030 ft 383 kts 231°
2026-04-19 07:04 10.85682 -67.64046 18551 ft 386 kts 231°
2026-04-19 07:04 10.83917 -67.66120 19055 ft 389 kts 231°
2026-04-19 07:04 10.82142 -67.68209 19572 ft 392 kts 231°
2026-04-19 07:05 10.80350 -67.70314 20082 ft 395 kts 231°
2026-04-19 07:05 10.78545 -67.72430 20594 ft 397 kts 231°
2026-04-19 07:05 10.76750 -67.74536 21114 ft 400 kts 231°
2026-04-19 07:05 10.74902 -67.76711 21640 ft 403 kts 231°
2026-04-19 07:06 10.73064 -67.78872 22135 ft 405 kts 231°
2026-04-19 07:06 10.71213 -67.81046 22614 ft 408 kts 231°
2026-04-19 07:06 10.69350 -67.83236 23074 ft 411 kts 231°
2026-04-19 07:06 10.67472 -67.85444 23516 ft 413 kts 231°
2026-04-19 07:07 10.65614 -67.87627 23818 ft 415 kts 231°
2026-04-19 07:07 10.63722 -67.89846 23906 ft 419 kts 230°
2026-04-19 07:07 10.61799 -67.92100 23935 ft 425 kts 230°
2026-04-19 07:07 10.59857 -67.94373 23937 ft 427 kts 230°
2026-04-19 07:08 10.57910 -67.96655 23938 ft 427 kts 230°
2026-04-19 07:08 10.55961 -67.98941 23939 ft 427 kts 230°
2026-04-19 07:08 10.54014 -68.01228 23940 ft 427 kts 230°
2026-04-19 07:08 10.52084 -68.03523 23939 ft 427 kts 233°
2026-04-19 07:09 10.50493 -68.06053 23949 ft 425 kts 244°
2026-04-19 07:09 10.49411 -68.08826 23946 ft 421 kts 254°
2026-04-19 07:09 10.48871 -68.11735 23948 ft 419 kts 265°
2026-04-19 07:09 10.48887 -68.14695 23948 ft 419 kts 273°
2026-04-19 07:10 10.49100 -68.17650 23942 ft 419 kts 273°
2026-04-19 07:10 10.49310 -68.20605 23940 ft 419 kts 273°
2026-04-19 07:10 10.49516 -68.23555 23934 ft 420 kts 273°
2026-04-19 07:10 10.49719 -68.26522 23931 ft 421 kts 273°
2026-04-19 07:11 10.49922 -68.29486 23934 ft 421 kts 273°
2026-04-19 07:11 10.50126 -68.32463 23933 ft 422 kts 273°
2026-04-19 07:11 10.50329 -68.35428 23933 ft 422 kts 273°
2026-04-19 07:11 10.50532 -68.38406 23934 ft 422 kts 273°
2026-04-19 07:12 10.50734 -68.41382 23937 ft 422 kts 273°
2026-04-19 07:12 10.50934 -68.44355 23937 ft 422 kts 273°
2026-04-19 07:12 10.51132 -68.47327 23938 ft 422 kts 273°
2026-04-19 07:12 10.51330 -68.50311 23939 ft 422 kts 273°
2026-04-19 07:13 10.51528 -68.53286 23937 ft 423 kts 273°
2026-04-19 07:13 10.51727 -68.56268 23935 ft 423 kts 273°
2026-04-19 07:13 10.51927 -68.59251 23934 ft 423 kts 273°
2026-04-19 07:13 10.52130 -68.62240 23935 ft 424 kts 273°
2026-04-19 07:14 10.52331 -68.65228 23938 ft 424 kts 273°
2026-04-19 07:14 10.52534 -68.68231 23948 ft 429 kts 273°
2026-04-19 07:14 10.52738 -68.71238 23953 ft 426 kts 273°
2026-04-19 07:14 10.52944 -68.74238 23956 ft 425 kts 273°
2026-04-19 07:15 10.53150 -68.77234 23956 ft 425 kts 273°
2026-04-19 07:15 10.53351 -68.80221 23956 ft 425 kts 273°
2026-04-19 07:15 10.53744 -68.86209 23958 ft 424 kts 273°
2026-04-19 07:16 10.53939 -68.89214 23956 ft 426 kts 273°
2026-04-19 07:16 10.54138 -68.92212 23956 ft 426 kts 273°
2026-04-19 07:16 10.54338 -68.95220 23954 ft 426 kts 273°
2026-04-19 07:16 10.54549 -68.98218 23954 ft 426 kts 274°
2026-04-19 07:17 10.54783 -69.01220 23959 ft 426 kts 274°
2026-04-19 07:17 10.55030 -69.04227 23957 ft 426 kts 274°
2026-04-19 07:17 10.55278 -69.07230 23955 ft 426 kts 274°
2026-04-19 07:17 10.55522 -69.10185 23954 ft 426 kts 274°
2026-04-19 07:18 10.55769 -69.13184 23956 ft 426 kts 274°
2026-04-19 07:18 10.56011 -69.16180 23956 ft 426 kts 274°
2026-04-19 07:18 10.56252 -69.19195 23956 ft 426 kts 274°
2026-04-19 07:18 10.56494 -69.22202 23955 ft 426 kts 274°
2026-04-19 07:19 10.56733 -69.25202 23955 ft 427 kts 274°
2026-04-19 07:19 10.56969 -69.28212 23958 ft 427 kts 274°
2026-04-19 07:19 10.57202 -69.31222 23958 ft 427 kts 274°
2026-04-19 07:19 10.57434 -69.34231 23960 ft 427 kts 274°
2026-04-19 07:20 10.57668 -69.37223 23965 ft 428 kts 274°
2026-04-19 07:20 10.57906 -69.40250 23964 ft 428 kts 274°
2026-04-19 07:20 10.58146 -69.43268 23966 ft 428 kts 274°
2026-04-19 07:20 10.58385 -69.46275 23968 ft 428 kts 274°
2026-04-19 07:21 10.58625 -69.49293 23964 ft 428 kts 274°
2026-04-19 07:21 10.58864 -69.52308 23966 ft 428 kts 274°
2026-04-19 07:21 10.59100 -69.55316 23968 ft 427 kts 274°
2026-04-19 07:21 10.59335 -69.58326 23970 ft 427 kts 274°
2026-04-19 07:22 10.59568 -69.61344 23974 ft 427 kts 274°
2026-04-19 07:22 10.59800 -69.64352 23974 ft 427 kts 274°
2026-04-19 07:22 10.60033 -69.67357 23971 ft 427 kts 274°
2026-04-19 07:22 10.60265 -69.70370 23970 ft 427 kts 274°
2026-04-19 07:23 10.60491 -69.73380 23969 ft 427 kts 274°
2026-04-19 07:23 10.60699 -69.76381 23967 ft 426 kts 274°
2026-04-19 07:23 10.60896 -69.79391 23967 ft 426 kts 274°
2026-04-19 07:23 10.61087 -69.82397 23963 ft 426 kts 274°
2026-04-19 07:24 10.61279 -69.85405 23964 ft 426 kts 274°
2026-04-19 07:24 10.61473 -69.88412 23964 ft 426 kts 274°
2026-04-19 07:24 10.61670 -69.91415 23963 ft 426 kts 274°
2026-04-19 07:24 10.61868 -69.94423 23958 ft 426 kts 274°
2026-04-19 07:25 10.62069 -69.97424 23957 ft 426 kts 274°
2026-04-19 07:25 10.62268 -70.00389 23955 ft 426 kts 274°
2026-04-19 07:25 10.62469 -70.03390 23954 ft 426 kts 274°
2026-04-19 07:25 10.62670 -70.06435 23955 ft 426 kts 274°
2026-04-19 07:26 10.62864 -70.09408 23952 ft 426 kts 274°
2026-04-19 07:26 10.63060 -70.12408 23952 ft 426 kts 274°
2026-04-19 07:26 10.63259 -70.15421 23952 ft 426 kts 274°
2026-04-19 07:26 10.63457 -70.18426 23954 ft 427 kts 274°
2026-04-19 07:27 10.63653 -70.21439 23959 ft 427 kts 274°
2026-04-19 07:27 10.63848 -70.24444 23962 ft 427 kts 274°
2026-04-19 07:27 10.64043 -70.27461 23964 ft 427 kts 274°
2026-04-19 07:27 10.64238 -70.30472 23966 ft 427 kts 274°
2026-04-19 07:28 10.64437 -70.33481 23965 ft 427 kts 274°
2026-04-19 07:28 10.64639 -70.36494 23966 ft 427 kts 274°
2026-04-19 07:28 10.64840 -70.39507 23967 ft 427 kts 274°
2026-04-19 07:28 10.65034 -70.42509 23964 ft 427 kts 274°
2026-04-19 07:29 10.65222 -70.45527 23968 ft 427 kts 274°
2026-04-19 07:29 10.65405 -70.48539 23967 ft 427 kts 274°
2026-04-19 07:29 10.65586 -70.51551 23965 ft 427 kts 274°
2026-04-19 07:29 10.65768 -70.54565 23958 ft 426 kts 274°
2026-04-19 07:30 10.65950 -70.57524 23780 ft 414 kts 274°
2026-04-19 07:30 10.66132 -70.60427 23565 ft 410 kts 274°
2026-04-19 07:30 10.66315 -70.63319 23303 ft 408 kts 274°
2026-04-19 07:30 10.66495 -70.66183 23043 ft 406 kts 274°
2026-04-19 07:31 10.66676 -70.69042 22784 ft 405 kts 274°
2026-04-19 07:31 10.66854 -70.71893 22529 ft 403 kts 274°
2026-04-19 07:31 10.67027 -70.74734 22265 ft 402 kts 274°
2026-04-19 07:31 10.67199 -70.77558 22013 ft 400 kts 274°
2026-04-19 07:32 10.67371 -70.80380 21768 ft 399 kts 274°
2026-04-19 07:32 10.67541 -70.83191 21520 ft 398 kts 274°
2026-04-19 07:32 10.67711 -70.85998 21275 ft 396 kts 274°
2026-04-19 07:32 10.67823 -70.87841 21118 ft 395 kts 274°
2026-04-19 07:33 10.67992 -70.90626 20651 ft 395 kts 274°
2026-04-19 07:33 10.68161 -70.93408 20107 ft 393 kts 274°
2026-04-19 07:33 10.68330 -70.96172 19640 ft 390 kts 274°
2026-04-19 07:33 10.68498 -70.98916 19182 ft 387 kts 274°
2026-04-19 07:34 10.68581 -71.01634 18729 ft 383 kts 267°
2026-04-19 07:34 10.68202 -71.04296 18279 ft 381 kts 256°
2026-04-19 07:34 10.67327 -71.06825 17779 ft 378 kts 245°
2026-04-19 07:34 10.66075 -71.09173 17267 ft 377 kts 241°
2026-04-19 07:35 10.64797 -71.11484 16751 ft 374 kts 241°
2026-04-19 07:35 10.63528 -71.13792 16255 ft 372 kts 241°
2026-04-19 07:35 10.62268 -71.16089 15774 ft 370 kts 241°
2026-04-19 07:35 10.61019 -71.18370 15290 ft 368 kts 241°
2026-04-19 07:36 10.59782 -71.20629 14823 ft 364 kts 241°
2026-04-19 07:36 10.58551 -71.22877 14352 ft 364 kts 241°
2026-04-19 07:36 10.57322 -71.25122 13912 ft 362 kts 241°
2026-04-19 07:36 10.56112 -71.27325 13428 ft 360 kts 241°
2026-04-19 07:37 10.54893 -71.29544 12921 ft 358 kts 241°
2026-04-19 07:37 10.53687 -71.31741 12583 ft 356 kts 241°
2026-04-19 07:37 10.52481 -71.33935 12200 ft 356 kts 241°
2026-04-19 07:37 10.51276 -71.36124 11710 ft 353 kts 241°
2026-04-19 07:38 10.50088 -71.38284 11283 ft 347 kts 241°
2026-04-19 07:38 10.48934 -71.40383 11169 ft 333 kts 241°
2026-04-19 07:38 10.47828 -71.42396 11038 ft 321 kts 241°
2026-04-19 07:38 10.46750 -71.44352 10735 ft 316 kts 241°
2026-04-19 07:39 10.45670 -71.46303 10304 ft 316 kts 241°
2026-04-19 07:39 10.44596 -71.48248 9947 ft 315 kts 241°
2026-04-19 07:39 10.43533 -71.50180 9555 ft 313 kts 241°
2026-04-19 07:39 10.42472 -71.52110 9172 ft 311 kts 241°
2026-04-19 07:40 10.41435 -71.53996 9033 ft 300 kts 241°
2026-04-19 07:40 10.40428 -71.55829 8910 ft 294 kts 241°
2026-04-19 07:40 10.39434 -71.57639 8783 ft 293 kts 241°
2026-04-19 07:40 10.38439 -71.59443 8489 ft 293 kts 240°
2026-04-19 07:41 10.37438 -71.61253 8097 ft 293 kts 240°
2026-04-19 07:41 10.36441 -71.63058 7692 ft 294 kts 240°
2026-04-19 07:41 10.35516 -71.64911 7278 ft 294 kts 249°
2026-04-19 07:41 10.34796 -71.66818 6859 ft 284 kts 249°
2026-04-19 07:42 10.34098 -71.68660 6455 ft 275 kts 249°
2026-04-19 07:42 10.33427 -71.70425 6056 ft 267 kts 248°
2026-04-19 07:42 10.32764 -71.72158 5664 ft 259 kts 249°
2026-04-19 07:42 10.32464 -71.73904 5281 ft 250 kts 279°
2026-04-19 07:43 10.33201 -71.75422 4927 ft 238 kts 319°
2026-04-19 07:43 10.34609 -71.76200 4594 ft 227 kts 340°
2026-04-19 07:43 10.36062 -71.76760 4229 ft 221 kts 340°
2026-04-19 07:43 10.37482 -71.77304 3928 ft 216 kts 341°
2026-04-19 07:44 10.38885 -71.77845 3623 ft 215 kts 341°
2026-04-19 07:44 10.40289 -71.78388 3303 ft 216 kts 340°
2026-04-19 07:44 10.41707 -71.78890 2998 ft 216 kts 352°
2026-04-19 07:44 10.43178 -71.78755 2684 ft 214 kts 21°
2026-04-19 07:45 10.44463 -71.78024 2344 ft 214 kts 33°
2026-04-19 07:45 10.45734 -71.77214 1969 ft 217 kts 29°
2026-04-19 07:45 10.47079 -71.76519 1635 ft 217 kts 25°
2026-04-19 07:45 10.48425 -71.75866 1280 ft 210 kts 24°
2026-04-19 07:46 10.49722 -71.75308 1081 ft 195 kts 21°
2026-04-19 07:46 10.50952 -71.74813 896 ft 185 kts 19°
2026-04-19 07:46 10.52109 -71.74422 742 ft 166 kts 17°
2026-04-19 07:46 10.53114 -71.74031 559 ft 146 kts 20°
2026-04-19 07:47 10.54025 -71.73652 366 ft 138 kts 20°
2026-04-19 07:47 10.54904 -71.73280 215 ft 130 kts 21°
2026-04-19 07:47 10.55581 -71.72999 222 ft 84 kts 22°
2026-04-19 07:47 10.56021 -71.72811 224 ft 55 kts 22°
2026-04-19 07:48 10.56345 -71.72668 228 ft 49 kts 32°
2026-04-19 07:48 10.56543 -71.72442 232 ft 23 kts 54°
2026-04-19 07:48 10.56582 -71.72332 235 ft 14 kts 110°
2026-04-19 07:48 10.56569 -71.72235 235 ft 11 kts 49°
2026-04-19 07:49 10.56595 -71.72247 236 ft 7 kts 270°
2026-04-19 07:49 10.56578 -71.72336 234 ft 18 kts 263°
2026-04-19 07:49 10.56453 -71.72424 231 ft 29 kts 202°
2026-04-19 07:49 10.56222 -71.72522 228 ft 41 kts 203°
2026-04-19 07:50 10.56018 -71.72589 224 ft 21 kts 161°
2026-04-19 07:50 10.55968 -71.72497 226 ft 19 kts 112°
2026-04-19 07:50 10.55896 -71.72445 224 ft 14 kts 201°
2026-04-19 07:50 10.55780 -71.72486 225 ft 15 kts 202°
2026-04-19 07:51 10.55717 -71.72452 222 ft 10 kts 122°
2026-04-19 07:51 10.55704 -71.72438 222 ft 0 kts 134°